Total_Precipitation_Accumulation
1.15 1.31 1.12 0.78 0.63 0.55 0.49 0.45 0.37 0.27 0.27 0.41 0.38 0.29 0.25 0.23 0.25 0.27 0.28 0.30 0.37 0.41 0.45 0.52 0.56 0.63 0.71 0.80 0.84 0.84 0.90 1.08 1.26 1.40 1.60 1.82 1.80 1.81 1.92 1.89 1.73 1.67 1.57 1.54
1.25 1.02 0.57 0.46 0.49 0.59 0.62 0.58 0.43 0.32 0.28 0.43 0.45 0.34 0.28 0.24 0.27 0.28 0.27 0.27 0.31 0.40 0.46 0.51 0.56 0.62 0.65 0.73 0.85 0.89 0.86 0.97 1.12 1.24 1.40 1.69 1.85 1.94 2.10 2.14 2.02 1.95 1.73 1.56
1.05 0.66 0.41 0.54 0.66 0.75 0.70 0.59 0.46 0.45 0.40 0.47 0.52 0.45 0.31 0.28 0.28 0.27 0.27 0.26 0.29 0.38 0.45 0.50 0.55 0.61 0.67 0.68 0.72 0.81 0.86 0.91 1.07 1.29 1.50 1.68 1.97 2.08 2.16 2.18 2.07 2.10 2.03 1.77
0.83 0.49 0.49 0.63 0.66 0.68 0.66 0.45 0.44 0.54 0.74 0.74 0.62 0.67 0.36 0.30 0.29 0.29 0.28 0.25 0.31 0.38 0.45 0.52 0.58 0.60 0.69 0.70 0.69 0.72 0.80 0.90 1.04 1.25 1.45 1.51 1.63 1.73 1.71 1.81 1.88 1.99 2.13 2.02
0.94 0.50 0.53 0.62 0.50 0.53 0.53 0.40 0.52 0.65 0.88 0.89 0.63 0.70 0.42 0.31 0.34 0.32 0.30 0.27 0.31 0.36 0.46 0.55 0.58 0.59 0.69 0.73 0.71 0.72 0.79 0.83 0.93 1.15 1.33 1.44 1.47 1.54 1.65 1.70 1.75 1.83 1.95 2.02
0.74 0.54 0.56 0.52 0.41 0.50 0.61 0.69 0.85 0.96 1.31 1.33 0.54 0.53 0.46 0.39 0.38 0.37 0.35 0.32 0.32 0.38 0.51 0.56 0.59 0.66 0.74 0.77 0.77 0.77 0.80 0.84 0.84 0.96 1.17 1.32 1.38 1.44 1.57 1.59 1.55 1.61 1.75 1.86
0.87 0.68 0.60 0.54 0.68 0.80 1.03 1.51 2.13 2.23 2.03 1.12 0.34 0.39 0.46 0.42 0.41 0.46 0.44 0.39 0.34 0.41 0.50 0.51 0.56 0.66 0.76 0.81 0.78 0.76 0.78 0.86 0.89 0.96 1.02 1.08 1.20 1.32 1.42 1.51 1.53 1.57 1.63 1.72
0.98 0.85 0.60 0.58 0.77 1.01 1.03 1.30 1.65 1.63 1.12 0.57 0.31 0.36 0.38 0.35 0.34 0.38 0.40 0.39 0.37 0.38 0.45 0.48 0.49 0.54 0.66 0.79 0.85 0.80 0.74 0.77 0.87 0.97 0.98 1.02 1.11 1.22 1.23 1.27 1.38 1.46 1.50 1.61
1.06 0.80 0.47 0.44 0.50 0.72 1.04 1.03 0.87 1.16 0.88 0.63 0.44 0.35 0.28 0.21 0.23 0.34 0.39 0.39 0.41 0.39 0.42 0.43 0.44 0.47 0.52 0.61 0.71 0.81 0.79 0.77 0.78 0.90 1.01 1.00 1.07 1.16 1.17 1.15 1.18 1.23 1.24 1.32
1.23 1.06 0.57 0.49 0.63 0.74 0.84 0.99 1.18 1.63 1.48 0.88 0.47 0.37 0.39 0.29 0.27 0.34 0.44 0.44 0.49 0.47 0.43 0.40 0.39 0.44 0.47 0.52 0.56 0.69 0.81 0.82 0.83 0.84 0.95 1.01 1.03 1.10 1.18 1.19 1.16 1.19 1.24 1.27
1.16 1.34 0.93 0.75 0.88 0.85 0.79 1.10 1.46 1.56 1.29 1.02 0.63 0.47 0.45 0.37 0.33 0.37 0.47 0.53 0.56 0.56 0.54 0.48 0.41 0.43 0.47 0.54 0.60 0.61 0.73 0.83 0.86 0.83 0.85 0.94 1.03 1.06 1.17 1.26 1.25 1.22 1.29 1.36
1.09 1.46 1.18 0.82 0.63 0.52 0.68 0.85 1.16 1.60 1.26 0.86 0.73 0.52 0.37 0.33 0.34 0.38 0.45 0.53 0.57 0.55 0.54 0.51 0.45 0.46 0.50 0.56 0.61 0.62 0.71 0.76 0.83 0.87 0.87 0.90 1.02 1.07 1.13 1.21 1.29 1.27 1.29 1.34
1.55 1.95 1.69 1.22 0.94 0.78 0.83 0.76 0.83 1.16 1.31 1.04 0.89 0.53 0.31 0.30 0.32 0.36 0.40 0.45 0.50 0.49 0.51 0.48 0.48 0.51 0.58 0.60 0.61 0.65 0.72 0.74 0.76 0.81 0.90 0.91 0.95 1.04 1.15 1.23 1.28 1.28 1.26 1.30
1.88 2.04 1.53 1.23 0.95 0.84 0.84 0.68 0.67 1.06 1.52 1.02 0.58 0.41 0.32 0.30 0.31 0.34 0.37 0.41 0.47 0.44 0.49 0.50 0.52 0.56 0.62 0.64 0.64 0.70 0.74 0.77 0.82 0.83 0.84 0.95 1.02 1.03 1.09 1.18 1.25 1.32 1.33 1.32
1.85 1.88 0.97 0.59 0.42 0.42 0.51 0.49 0.51 0.72 0.80 0.77 0.49 0.38 0.41 0.40 0.41 0.41 0.43 0.44 0.44 0.45 0.50 0.55 0.58 0.62 0.69 0.71 0.71 0.78 0.84 0.85 0.94 1.03 1.00 0.97 1.03 1.05 1.03 1.08 1.13 1.21 1.30 1.31
1.64 1.73 1.00 0.67 0.41 0.38 0.41 0.36 0.37 0.43 0.44 0.44 0.37 0.39 0.38 0.36 0.36 0.34 0.37 0.44 0.46 0.49 0.55 0.58 0.60 0.65 0.74 0.81 0.90 0.97 1.03 1.03 1.07 1.16 1.16 1.04 1.01 1.01 1.04 1.06 1.08 1.11 1.17 1.21
1.49 1.59 1.50 0.99 0.51 0.69 0.75 0.46 0.41 0.41 0.44 0.44 0.47 0.44 0.35 0.33 0.34 0.35 0.37 0.41 0.47 0.50 0.54 0.57 0.60 0.66 0.76 0.90 1.05 1.16 1.14 1.09 1.14 1.18 1.24 1.19 1.06 1.00 1.01 1.01 1.02 1.02 1.04 1.09
1.17 1.34 1.83 1.42 1.00 1.27 0.69 0.35 0.35 0.37 0.41 0.43 0.44 0.40 0.37 0.37 0.34 0.33 0.34 0.38 0.43 0.49 0.55 0.60 0.67 0.69 0.75 0.89 1.03 1.12 1.14 1.12 1.17 1.21 1.19 1.16 1.06 0.96 0.98 1.01 0.98 0.91 0.93 0.99
0.71 1.26 2.00 1.80 1.35 0.76 0.31 0.24 0.35 0.44 0.48 0.44 0.42 0.37 0.34 0.32 0.30 0.32 0.33 0.35 0.41 0.48 0.54 0.62 0.67 0.68 0.72 0.80 0.92 0.98 1.01 0.99 1.04 1.11 1.11 1.08 1.03 0.98 1.01 1.06 1.00 0.91 0.91 0.93
0.74 1.24 2.16 2.00 1.57 0.79 0.35 0.20 0.25 0.41 0.56 0.39 0.37 0.39 0.39 0.40 0.56 0.44 0.37 0.33 0.32 0.35 0.41 0.52 0.61 0.58 0.60 0.69 0.75 0.80 0.85 0.85 0.87 0.93 0.98 1.03 0.98 0.97 1.01 1.07 1.03 0.99 0.96 0.98
1.15 1.77 2.11 1.72 1.49 0.68 0.30 0.18 0.24 0.61 0.71 0.42 0.38 0.41 0.48 0.59 0.66 0.47 0.36 0.32 0.32 0.32 0.35 0.41 0.51 0.59 0.63 0.72 0.75 0.76 0.78 0.81 0.80 0.80 0.84 0.94 0.97 0.96 0.98 1.03 1.06 1.05 1.05 1.07
0.90 1.25 1.32 1.31 1.59 0.85 0.30 0.29 0.54 0.72 0.47 0.39 0.39 0.43 0.53 0.50 0.38 0.33 0.33 0.35 0.32 0.31 0.33 0.40 0.50 0.61 0.69 0.73 0.72 0.70 0.76 0.78 0.74 0.77 0.80 0.85 0.93 0.94 0.96 0.99 0.99 0.98 1.06 1.15
0.73 0.95 1.02 0.97 0.89 0.54 0.41 0.50 0.53 0.49 0.49 0.47 0.55 0.55 0.54 0.50 0.43 0.40 0.38 0.35 0.33 0.33 0.36 0.42 0.51 0.59 0.67 0.68 0.67 0.70 0.76 0.76 0.74 0.77 0.80 0.85 0.91 0.92 0.91 0.92 0.94 0.92 0.95 1.07
0.51 0.54 0.72 0.70 0.52 0.39 0.36 0.33 0.32 0.35 0.45 0.50 0.51 0.53 0.55 0.59 0.52 0.46 0.44 0.43 0.41 0.40 0.41 0.44 0.49 0.57 0.62 0.61 0.64 0.74 0.77 0.77 0.75 0.81 0.85 0.89 0.94 0.98 0.92 0.87 0.88 0.90 0.97 1.14
0.45 0.44 0.52 0.53 0.40 0.34 0.32 0.32 0.33 0.36 0.36 0.36 0.36 0.40 0.52 0.60 0.55 0.47 0.46 0.49 0.50 0.50 0.49 0.49 0.54 0.61 0.60 0.55 0.57 0.70 0.78 0.80 0.80 0.81 0.87 0.92 0.96 0.98 0.95 0.90 0.90 0.95 0.99 1.24
0.40 0.45 0.51 0.49 0.38 0.40 0.38 0.34 0.35 0.38 0.38 0.38 0.39 0.41 0.43 0.47 0.49 0.44 0.46 0.49 0.50 0.53 0.55 0.54 0.53 0.54 0.55 0.52 0.53 0.62 0.72 0.78 0.81 0.81 0.84 0.91 0.98 1.01 0.96 0.91 0.93 0.97 1.00 1.12